User: anonymous   Login
Location: Spradlin Observatory
(33.4706°N, 86.3221°W)
Time: 17:48:24
(UTC-06:00)
Language:

COSMOS 2406 - Orbit

View from above orbital plane
View from above orbital plane
View from above satellite
View from above satellite

Ground track
Ground track

The orbit data is extracted from the following two-line orbital elements,

1 28352U 04021A   16037.71306494 -.00000290  00000-0 -13409-3 0  9991
2 28352  71.0023  81.1866 0013423 137.5766   0.6259 14.11435128600797
Epoch (UTC): 06 February 2016 17:06:48
Eccentricity: 0.0013423
inclination: 71.0023°
perigee height: 845 km
apogee height: 864 km
right ascension of ascending node: 81.1866°
argument of perigee: 137.5766°
revolutions per day: 14.11435128
mean anomaly at epoch: 0.6259°
orbit number at epoch: 60079

The dashed part of the orbit path shows where the satellite is in the earth's shadow,  

DLR